METEOSAT-9 (MSG-2)

Last updated on Wed Aug 19 2026 00:02:40 GMT+0000 (Coordinated Universal Time)

1 28912U 05049B 26229.78539660 .00000115 00000+0 00000+0 0 9990 2 28912 9.4975 53.5432 0002892 7.8399 233.2170 1.00275390 7616
UTC large
Height (km)
Speed (km/s)
/
Latitude / Longitude
Inclination (degrees)
Orbital Period (minutes)
Azimuth
Elevation
Range (km)
Doppler Factor

Next 0 passes for location: London (51.5072 / 0.1276)

No passes found over London.
METEOSAT-9 (MSG-2)